Lexington Weather

Lexington, Massachusetts, USA

68°F
9/23/2021 5:39am 
  • Lexington Conditions: Mostly cloudy
  • Temperature: 67.5°F / 19.7°CWarmer 0.6°F than last hour.
  • Dew Point: 66.6°FIncreased 0.6°Fsince last hour.
  • Relative Humidity: 97
  • Wind: Calm, 10-min avg: Calm, gust: 3 mph
  • Barometer: 30.03 in Steady
  • Visibility: 10 miles
  • Rain Today: 0.00 in
  •   

Regional Weather Roundup
for Boston / Norton, MA

        
000
ASUS41 KBOX 221704
RWRBOX

REGIONAL WEATHER ROUNDUP
NATIONAL WEATHER SERVICE BOSTON/NORTON MA
100 PM EDT WED SEP 22 2021

NOTE:  "FAIR" INDICATES FEW OR NO CLOUDS BELOW 12,000 FEET WITH NO 
SIGNIFICANT WEATHER AND/OR OBSTRUCTIONS TO VISIBILITY.

MAZALL-221800-
EASTERN MASSACHUSETTS
  
CITY           SKY/WX    TMP DP  RH WIND       PRES   REMARKS
BOSTON         CLOUDY    80  66  62 S12       30.16F                  
BEVERLY        CLOUDY    74  68  81 SE8       30.17F                  
LAWRENCE       LGT RAIN  75  67  76 SE8       30.18F                  
BEDFORD        CLOUDY    78  68  71 SE9G17    30.15F                  
BLUE HILL      NOT AVBL                                               
NORWOOD        CLOUDY    76  66  71 S16G24    30.16F                  
MARSHFIELD     CLOUDY    73  68  83 SE8G15    30.17F                  
PLYMOUTH       PTSUNNY   77  67  71 S10G16    30.18F                  
TAUNTON        CLOUDY    77  67  71 S9G18     30.17F                  
NEW BEDFORD    CLOUDY    78  69  73 SE15G22   30.17F                  
$$

MAZALL-221800-
CAPE COD AND THE ISLANDS
  
CITY           SKY/WX    TMP DP  RH WIND       PRES   REMARKS
FALMOUTH       PTSUNNY   77  68  73 S17G28    30.19F                  
HYANNIS        SUNNY     76  68  76 SE10G18   30.18F                  
CHATHAM        SUNNY     74  66  76 S8G18     30.21F                  
PROVINCETOWN   CLOUDY    75  68  78 S13G18    30.20F                  
NANTUCKET        N/A    N/A N/A N/A MISG      30.20F                  
MARTHAS VNYRD  PTSUNNY   77  69  76 S15G25    30.19F                  
$$
 
MAZALL-221800-
CENTRAL AND WESTERN MASSACHUSETTS
  
CITY           SKY/WX    TMP DP  RH WIND       PRES   REMARKS
WORCESTER      LGT RAIN  70  69  97 S10       30.17F                  
FITCHBURG      LGT RAIN  71  70  96 SE8       30.16F VSB 1            
ORANGE         LGT RAIN  74  68  81 S8        30.14F                  
SPRINGFIELD    CLOUDY    78  67  67 S9        30.10F                  
WESTFIELD      PTSUNNY   78  72  81 S8        30.11F                  
NORTH ADAMS      N/A     78  66  66 E14G20    30.10F                  
PITTSFIELD     PTSUNNY   76  65  68 SE8G17    30.10F                  
$$
 
RIZALL-221800-
RHODE ISLAND
  
CITY           SKY/WX    TMP DP  RH WIND       PRES   REMARKS
PROVIDENCE     LGT RAIN  72  71  97 SE13      30.17F FOG              
NEWPORT        LGT RAIN  70  69  97 S12       30.17F FOG              
BLOCK ISLAND   CLOUDY    73  69  87 S14G20    30.16F                  
SMITHFIELD     LGT RAIN  69  69 100 VRB5      30.18F                  
WESTERLY       CLOUDY    71  70  96 S12       30.16F                  
$$
 
CTZALL-221800-
CONNECTICUT
  
CITY           SKY/WX    TMP DP  RH WIND       PRES   REMARKS
BRADLEY INTL   CLOUDY    78  69  73 S9        30.11F                  
HARTFORD       PTSUNNY   78  69  73 S7        30.11F                  
BRIDGEPORT     PTSUNNY   79  71  76 SE12      30.10F                  
DANBURY        PTSUNNY   78  68  71 VRB7      30.11F                  
GROTON         CLOUDY    73  70  90 S13       30.13F                  
NEW HAVEN      CLOUDY    78  71  79 SE10      30.12F                  
CHESTER        NOT AVBL                                               
MERIDEN        LGT RAIN  75  70  84 S8        30.11F                  
WILLIMANTIC    LGT RAIN  72  70  93 S9        30.14F FOG              
OXFORD         CLOUDY    74  70  87 S7        30.13F                  
$$

MEZ002-015-021-024-NHZ003-005-008-011-012-014-VTZ005-008-221800-
NORTHERN NEW ENGLAND
  
CITY           SKY/WX    TMP DP  RH WIND       PRES   REMARKS
PORTLAND ME    CLOUDY    70  64  81 S9G18     30.20F                  
BANGOR ME      MOSUNNY   75  63  66 S13       30.21F                  
CONCORD NH     CLOUDY    75  65  70 S10       30.15F                  
MANCHESTER NH  PTSUNNY   78  65  63 SE16      30.13F                  
NASHUA NH      CLOUDY    77  71  82 SE9       30.15F                  
PORTSMOUTH NH  CLOUDY    75  65  70 SE14      30.18F                  
JAFFREY NH     LGT RAIN  71  70  96 S8        30.17F FOG              
KEENE NH       PTSUNNY   75  69  81 S8        30.13F                  
BURLINGTON VT  PTSUNNY   77  65  66 S15       30.05F                  
MT. WASHINGTON LGT RAIN  52  52 100 S38G49      N/A  VSB 0            
$$

NYZ052-076-221800-
EASTERN NEW YORK
  
CITY           SKY/WX    TMP DP  RH WIND       PRES   REMARKS
ALBANY         PTSUNNY   76  67  73 S12G24    30.06F                  
NEW YORK CITY  PTSUNNY   73  67  81 S15G22    30.08F                  
$$
 
ANZALL-221800-
MARINE OBSERVATIONS
  
STATION/POSITION TIME  TEMP    WIND        PRES    VSBY  WAVE
                       AIR SEA DIR/SP/G                  HT/PER
                 (UTC) (F)     (DEG/KT/KT) (MB)    (MI)  (FT/S)
BOSTON BUOY      1640      64  140/ 14/ 16 1022.2F
BUZZARDS BAY     1600          130/ 18/ 19 1023.0F
NANTUCKET SOUND  1640   74 72  150/ 14/ 17 1022.3F
MASS BAY-STELLWA 1604   68     160/ 12/ 16 1022.0F  1 7/8  3/ 5
ISLE OF SHOALS   1600   67     160/ 17/ 18 1022.1F
S OF BLOCK IS    1626      70                N/A           5/11
$$

......................KEY.........................
  SKY/WX - SKY CONDITION/PRESENT WEATHER
  TMP    - TEMPERATURE IN FAHRENHEIT
  DWPT   - DEWPOINT IN FAHRENHEIT
  RH     - RELATIVE HUMIDITY IN PERCENT
  WIND   - DIRECTION AND SPEED IN MPH
  PRES   - MEAN SEA LEVEL PRESSURE IN INCHES OF HG
  WCI    - WIND CHILL INDEX
  VSB    - VISIBILITY IN MILES
  HX     - HEAT INDEX
  TC     - TEMPERATURE IN CELSIUS
  VRB    - VARIABLE WIND DIRECTION
  N/A    - NOT AVAILABLE
  
      

Other recent Regional Weather Roundups

Thu Sep 23, 5:04am

Thu Sep 23, 4:04am

Thu Sep 23, 3:04am

Thu Sep 23, 2:04am

Thu Sep 23, 1:04am

Thu Sep 23, 12:04am

Wed Sep 22, 11:04pm

Wed Sep 22, 10:04pm

Wed Sep 22, 9:04pm

Wed Sep 22, 8:04pm

Wed Sep 22, 7:04pm

Wed Sep 22, 6:04pm

Wed Sep 22, 5:04pm

Wed Sep 22, 4:04pm

Wed Sep 22, 3:04pm

Wed Sep 22, 2:04pm

Wed Sep 22, 12:05pm

Wed Sep 22, 11:04am

Wed Sep 22, 10:04am

Wed Sep 22, 9:04am

Wed Sep 22, 8:04am

Wed Sep 22, 7:04am

Wed Sep 22, 6:04am

Wed Sep 22, 5:04am

Wed Sep 22, 4:04am

Wed Sep 22, 3:04am

Wed Sep 22, 2:04am

Wed Sep 22, 1:04am

Wed Sep 22, 12:04am

Tue Sep 21, 11:04pm

Tue Sep 21, 10:04pm

Tue Sep 21, 9:04pm

Tue Sep 21, 8:04pm

Tue Sep 21, 7:04pm

Tue Sep 21, 6:04pm

Tue Sep 21, 5:04pm

Tue Sep 21, 4:04pm

Tue Sep 21, 3:04pm

Tue Sep 21, 2:04pm

Tue Sep 21, 1:04pm

Tue Sep 21, 12:04pm

Tue Sep 21, 11:04am

Tue Sep 21, 10:04am

Tue Sep 21, 9:04am

Tue Sep 21, 8:04am

Tue Sep 21, 7:04am

Tue Sep 21, 6:04am

Tue Sep 21, 5:04am

Tue Sep 21, 4:04am

Tue Sep 21, 3:04am

Tue Sep 21, 2:04am

Tue Sep 21, 1:04am

Tue Sep 21, 12:04am

Mon Sep 20, 11:04pm

Mon Sep 20, 10:04pm

Mon Sep 20, 9:04pm

Mon Sep 20, 8:04pm

Mon Sep 20, 7:04pm

Mon Sep 20, 6:04pm

Mon Sep 20, 5:04pm

Mon Sep 20, 4:04pm

Mon Sep 20, 3:04pm

Mon Sep 20, 2:04pm

Mon Sep 20, 1:04pm

Mon Sep 20, 12:04pm

Mon Sep 20, 11:04am

Mon Sep 20, 10:04am

Mon Sep 20, 9:04am

Mon Sep 20, 7:04am

Mon Sep 20, 6:04am

Mon Sep 20, 5:04am

Mon Sep 20, 4:04am

Mon Sep 20, 3:04am

Mon Sep 20, 2:04am

Mon Sep 20, 1:04am

Mon Sep 20, 12:04am

Sun Sep 19, 11:04pm

Sun Sep 19, 10:04pm

Sun Sep 19, 9:04pm

Sun Sep 19, 8:04pm

Sun Sep 19, 7:04pm

Sun Sep 19, 6:04pm

Sun Sep 19, 5:04pm

Sun Sep 19, 4:04pm

Sun Sep 19, 3:04pm

Sun Sep 19, 2:05pm

Sun Sep 19, 1:04pm

Sun Sep 19, 12:04pm

Sun Sep 19, 11:04am

Sun Sep 19, 10:05am

Sun Sep 19, 9:04am

Sun Sep 19, 8:04am

Sun Sep 19, 7:04am

Sun Sep 19, 6:04am

Sun Sep 19, 5:04am

Sun Sep 19, 4:04am

Sun Sep 19, 3:04am

Sun Sep 19, 2:04am

Sun Sep 19, 1:04am

Sun Sep 19, 12:04am

Sat Sep 18, 11:05pm

Sat Sep 18, 10:04pm

Sat Sep 18, 9:04pm

Sat Sep 18, 8:04pm

Sat Sep 18, 7:04pm

Sat Sep 18, 6:04pm

Sat Sep 18, 5:04pm

Sat Sep 18, 4:04pm

Sat Sep 18, 3:04pm

Sat Sep 18, 2:04pm

Sat Sep 18, 1:04pm

Sat Sep 18, 12:04pm

Sat Sep 18, 11:04am

Sat Sep 18, 10:04am

Sat Sep 18, 9:04am

Sat Sep 18, 8:04am

Sat Sep 18, 7:04am

Sat Sep 18, 6:04am

Sat Sep 18, 5:04am

Sat Sep 18, 4:04am

Sat Sep 18, 3:04am

Sat Sep 18, 2:04am

Sat Sep 18, 1:04am

Sat Sep 18, 12:04am

Fri Sep 17, 11:04pm

Fri Sep 17, 10:04pm

Fri Sep 17, 9:04pm

Fri Sep 17, 8:04pm

Fri Sep 17, 7:04pm

Fri Sep 17, 6:04pm

Fri Sep 17, 5:04pm

Fri Sep 17, 4:04pm

Fri Sep 17, 3:04pm

Fri Sep 17, 2:04pm

Fri Sep 17, 1:04pm

Fri Sep 17, 12:05pm

Fri Sep 17, 11:04am

Fri Sep 17, 10:04am

Fri Sep 17, 9:04am

Fri Sep 17, 8:04am

Fri Sep 17, 7:04am

Fri Sep 17, 6:04am

Fri Sep 17, 5:04am

Fri Sep 17, 4:04am

Fri Sep 17, 3:04am

Fri Sep 17, 2:04am

Fri Sep 17, 1:04am

Fri Sep 17, 12:04am

Thu Sep 16, 11:04pm

Thu Sep 16, 10:04pm

Thu Sep 16, 9:04pm

Thu Sep 16, 8:04pm

Thu Sep 16, 7:04pm

Thu Sep 16, 6:04pm

Thu Sep 16, 5:04pm

Thu Sep 16, 4:04pm

Thu Sep 16, 3:04pm

Thu Sep 16, 2:04pm

Thu Sep 16, 1:05pm

Thu Sep 16, 12:04pm

Thu Sep 16, 11:05am

Thu Sep 16, 10:05am

Thu Sep 16, 9:04am

Thu Sep 16, 8:04am

Thu Sep 16, 7:04am

Thu Sep 16, 6:04am

Meta data:

ID: 201ce070-25be-4443-85ba-65f96e897d7e
Link: https://api.weather.gov/products/201ce070-25be-4443-85ba-65f96e897d7e